Temp
-1 -1 -1 -2 -2 -2 -2 -2 -2 -2 -2 -2 -2 -2 -2 -2 -2 -1 -1 -1 -1 -1 -1 -1 -1 -1 -1 -1 -1 -1 -1 -1 -1 -1 -1 -1 -1 -1 -1 -1 -1 -1
-2 -2 -2 -2 -2 -2 -2 -2 -2 -3 -3 -3 -3 -2 -2 -2 -2 -2 -2 -2 -2 -2 -2 -2 -2 -1 -1 -2 -2 -2 -2 -2 -2 -1 -1 -1 -1 -1 -1 -1 -1 -1
-2 -2 -2 -2 -2 -2 -2 -2 -3 -3 -3 -3 -3 -3 -3 -3 -3 -2 -2 -2 -2 -2 -3 -3 -2 -2 -2 -2 -2 -2 -2 -2 -2 -2 -2 -2 -2 -2 -2 -2 -2 -2
-3 -3 -3 -3 -3 -2 -2 -2 -2 -2 -2 -3 -3 -3 -4 -4 -4 -4 -4 -4 -3 -3 -3 -3 -3 -3 -3 -3 -3 -3 -3 -3 -3 -3 -3 -3 -3 -3 -2 -2 -2 -2
-3 -3 -3 -3 -3 -3 -3 -3 -3 -3 -3 -3 -3 -3 -4 -4 -4 -5 -5 -5 -5 -5 -5 -4 -4 -4 -4 -3 -3 -3 -3 -3 -4 -4 -3 -3 -4 -3 -3 -3 -3 -3
-3 -4 -4 -4 -4 -4 -4 -5 -5 -5 -5 -5 -4 -4 -4 -5 -5 -5 -6 -6 -6 -6 -6 -6 -6 -5 -5 -5 -4 -4 -4 -4 -4 -4 -4 -4 -4 -4 -4 -4 -4 -3
-5 -5 -5 -5 -5 -5 -6 -6 -6 -6 -6 -6 -6 -6 -6 -6 -6 -6 -6 -7 -7 -7 -7 -7 -7 -7 -7 -7 -6 -6 -5 -5 -5 -5 -5 -5 -5 -5 -5 -5 -5 -5
-6 -6 -6 -6 -7 -7 -7 -7 -7 -7 -7 -7 -7 -7 -7 -7 -7 -7 -7 -7 -8 -8 -8 -8 -8 -8 -8 -8 -8 -8 -7 -7 -6 -6 -6 -6 -6 -6 -6 -6 -5 -5
-8 -8 -8 -8 -8 -8 -8 -8 -8 -9 -9 -9 -9 -9 -9 -9 -8 -8 -8 -8 -8 -8 -9 -9 -9 -9 -9 -9 -9 -9 -9 -8 -8 -8 -7 -7 -6 -6 -6 -6 -6 -6
-9 -9 -9 -9 -9 -9 -9 -9 -9 -9 -9 -9 -9 -9 -9 -9 -9 -9 -9 -9 -9 -9 -9 -9 -9 -9 -9 -9 -9 -9 -9 -9 -9 -9 -9 -8 -7 -7 -7 -7 -7 -6
-11 -11 -11 -11 -10 -10 -10 -10 -10 -10 -10 -10 -10 -10 -10 -10 -10 -10 -10 -10 -10 -10 -10 -10 -10 -10 -10 -10 -10 -10 -10 -10 -10 -10 -9 -9 -9 -8 -8 -7 -7 -7
-11 -11 -11 -11 -11 -11 -11 -11 -11 -11 -11 -11 -11 -11 -11 -11 -10 -10 -10 -10 -10 -10 -10 -10 -10 -10 -11 -11 -11 -11 -11 -11 -11 -11 -10 -10 -9 -9 -9 -9 -8 -8
-12 -12 -12 -11 -11 -11 -11 -11 -11 -11 -11 -11 -12 -12 -12 -12 -12 -12 -11 -11 -11 -11 -11 -11 -11 -11 -11 -11 -11 -12 -12 -12 -11 -11 -11 -11 -10 -10 -9 -9 -9 -8
-12 -12 -12 -12 -12 -12 -12 -12 -12 -12 -12 -12 -12 -12 -12 -12 -12 -12 -12 -12 -12 -12 -12 -12 -12 -12 -12 -12 -12 -12 -12 -12 -11 -11 -11 -11 -11 -10 -10 -10 -9 -9
-12 -12 -12 -12 -12 -12 -12 -12 -12 -12 -12 -12 -13 -13 -13 -13 -13 -13 -13 -13 -13 -13 -13 -13 -12 -12 -12 -12 -12 -12 -12 -12 -11 -11 -11 -11 -11 -10 -10 -10 -10 -10
-12 -12 -12 -13 -13 -13 -13 -13 -13 -13 -13 -13 -13 -13 -13 -13 -13 -13 -13 -13 -13 -13 -13 -13 -13 -13 -13 -13 -12 -12 -12 -12 -11 -11 -11 -11 -10 -10 -10 -10 -10 -10
-13 -13 -13 -13 -13 -13 -13 -13 -13 -13 -13 -13 -13 -13 -13 -13 -13 -13 -13 -13 -13 -13 -13 -13 -13 -13 -13 -13 -13 -13 -13 -13 -12 -12 -12 -11 -11 -10 -10 -10 -10 -10
-13 -13 -13 -13 -13 -13 -13 -13 -13 -13 -13 -13 -13 -13 -13 -13 -13 -13 -13 -13 -13 -13 -13 -13 -13 -13 -13 -13 -13 -13 -14 -14 -14 -13 -13 -13 -12 -12 -11 -10 -10 -10
-14 -14 -14 -14 -14 -14 -14 -14 -14 -14 -14 -14 -14 -14 -13 -13 -13 -13 -13 -13 -13 -13 -13 -13 -13 -13 -13 -13 -14 -14 -14 -14 -14 -14 -14 -13 -13 -13 -12 -12 -11 -11
-14 -14 -14 -14 -14 -14 -14 -14 -14 -14 -14 -14 -14 -14 -14 -14 -14 -14 -14 -14 -14 -14 -14 -13 -13 -14 -14 -14 -14 -14 -14 -14 -14 -13 -13 -13 -13 -13 -13 -13 -13 -12
-14 -14 -14 -14 -14 -14 -14 -14 -14 -14 -14 -14 -14 -14 -14 -14 -14 -14 -14 -14 -14 -14 -14 -14 -14 -14 -14 -14 -14 -14 -14 -14 -13 -13 -13 -12 -12 -12 -12 -13 -13 -13
-15 -15 -15 -15 -15 -15 -15 -15 -15 -15 -15 -14 -14 -14 -14 -14 -14 -14 -14 -14 -14 -14 -14 -14 -14 -14 -14 -14 -14 -14 -14 -13 -13 -13 -13 -12 -12 -12 -12 -12 -13 -13
-15 -15 -15 -15 -15 -15 -15 -15 -15 -15 -15 -15 -14 -14 -14 -14 -14 -14 -14 -14 -14 -14 -14 -14 -14 -14 -14 -14 -14 -14 -13 -13 -13 -13 -13 -13 -13 -13 -13 -13 -13 -13
-15 -15 -15 -15 -15 -15 -15 -15 -15 -15 -15 -15 -15 -15 -14 -14 -14 -14 -14 -14 -14 -14 -15 -15 -14 -14 -14 -14 -14 -14 -14 -14 -14 -14 -13 -13 -13 -13 -13 -13 -13 -13
-15 -15 -15 -15 -15 -15 -15 -15 -15 -15 -15 -15 -15 -15 -15 -15 -14 -14 -14 -14 -14 -15 -15 -15 -14 -14 -14 -14 -14 -14 -14 -15 -15 -14 -13 -13 -13 -12 -12 -12 -12 -12
-15 -15 -15 -16 -16 -16 -16 -16 -16 -15 -15 -15 -15 -15 -15 -15 -15 -14 -14 -14 -15 -15 -15 -15 -15 -15 -14 -14 -14 -15 -15 -15 -15 -14 -13 -13 -13 -12 -12 -12 -12 -12
Height
3090 3090 3090 3089 3088 3087 3087 3086 3086 3086 3085 3084 3083 3081 3080 3079 3078 3078 3077 3077 3076 3075 3074 3074 3073 3072 3071 3070 3069 3068 3068 3067 3066 3065 3064 3063 3062 3062 3061 3060 3059 3058
3085 3085 3085 3084 3083 3082 3081 3080 3079 3078 3077 3077 3076 3075 3074 3074 3073 3073 3072 3072 3071 3070 3069 3068 3067 3066 3065 3064 3063 3062 3061 3061 3060 3059 3059 3058 3057 3056 3056 3055 3054 3053
3082 3082 3081 3080 3079 3078 3076 3075 3073 3072 3070 3069 3068 3068 3068 3068 3068 3067 3067 3066 3066 3065 3064 3063 3061 3060 3059 3058 3057 3056 3055 3054 3053 3053 3052 3051 3050 3050 3049 3049 3049 3048
3079 3078 3077 3076 3075 3074 3073 3072 3070 3069 3067 3065 3064 3062 3062 3061 3061 3060 3060 3060 3059 3059 3058 3057 3056 3054 3053 3052 3051 3049 3048 3047 3046 3046 3046 3045 3044 3043 3043 3042 3042 3041
3075 3074 3073 3072 3071 3069 3068 3067 3066 3065 3063 3062 3060 3058 3056 3055 3054 3053 3053 3052 3052 3052 3052 3051 3050 3049 3047 3046 3045 3043 3042 3041 3040 3039 3039 3038 3037 3036 3035 3034 3034 3034
3071 3069 3068 3067 3065 3064 3062 3061 3060 3059 3057 3056 3054 3053 3051 3050 3048 3047 3046 3046 3045 3045 3044 3044 3044 3043 3042 3041 3039 3038 3036 3035 3034 3033 3032 3031 3030 3029 3028 3027 3027 3027
3066 3064 3063 3061 3059 3058 3057 3055 3054 3053 3051 3050 3049 3047 3046 3045 3043 3042 3040 3039 3038 3038 3037 3036 3036 3036 3035 3034 3034 3032 3031 3029 3028 3027 3025 3024 3023 3023 3022 3020 3019 3019
3061 3059 3058 3056 3054 3053 3051 3050 3049 3047 3046 3045 3044 3042 3041 3040 3038 3037 3035 3034 3033 3031 3030 3029 3029 3028 3027 3027 3026 3025 3024 3023 3021 3019 3018 3018 3017 3016 3015 3014 3013 3012
3055 3054 3053 3051 3050 3048 3047 3045 3044 3042 3041 3040 3039 3037 3036 3035 3033 3032 3030 3029 3027 3026 3024 3023 3022 3021 3020 3019 3017 3016 3015 3014 3013 3012 3010 3010 3009 3008 3008 3007 3006 3005
3049 3048 3047 3046 3045 3044 3042 3041 3039 3038 3036 3035 3034 3033 3031 3030 3028 3027 3025 3024 3022 3021 3019 3017 3016 3014 3013 3011 3010 3008 3006 3005 3004 3003 3002 3001 3001 3000 3000 2999 2998 2998
3044 3043 3042 3041 3040 3039 3037 3036 3034 3033 3032 3030 3029 3028 3026 3025 3023 3022 3020 3018 3017 3015 3013 3012 3010 3008 3006 3005 3003 3000 2998 2996 2995 2994 2993 2993 2992 2992 2991 2991 2990 2990
3039 3038 3037 3036 3035 3033 3032 3031 3029 3028 3026 3025 3023 3022 3021 3019 3018 3016 3015 3013 3011 3009 3007 3005 3003 3002 3000 2997 2995 2992 2990 2988 2986 2984 2983 2983 2983 2983 2982 2982 2981 2981
3035 3034 3033 3032 3030 3029 3027 3026 3024 3023 3021 3019 3018 3016 3015 3014 3012 3011 3009 3007 3006 3004 3001 2999 2997 2995 2993 2990 2987 2984 2981 2979 2978 2976 2975 2974 2973 2973 2972 2972 2972 2972
3031 3030 3028 3027 3026 3024 3023 3021 3019 3018 3016 3015 3013 3011 3010 3008 3006 3005 3004 3002 3000 2998 2996 2994 2991 2989 2987 2983 2978 2975 2972 2969 2968 2967 2965 2964 2964 2963 2963 2962 2962 2962
3026 3025 3023 3022 3020 3019 3017 3016 3014 3013 3011 3010 3008 3006 3004 3003 3001 2999 2997 2995 2994 2992 2990 2988 2986 2984 2981 2976 2971 2967 2964 2961 2959 2957 2955 2954 2953 2953 2953 2953 2952 2951
3021 3020 3018 3016 3015 3013 3012 3010 3009 3007 3006 3004 3003 3001 2999 2997 2995 2993 2991 2988 2986 2984 2983 2981 2979 2977 2974 2969 2965 2960 2956 2952 2950 2948 2946 2944 2942 2941 2941 2942 2941 2941
3016 3015 3013 3011 3010 3008 3006 3005 3003 3001 3000 2998 2996 2995 2993 2991 2989 2987 2985 2982 2978 2976 2974 2972 2970 2968 2963 2959 2956 2952 2947 2943 2940 2938 2937 2934 2932 2930 2930 2930 2929 2929
3011 3009 3008 3006 3004 3002 3001 2999 2997 2995 2993 2991 2990 2988 2986 2984 2982 2980 2978 2975 2971 2968 2966 2963 2961 2957 2952 2948 2945 2941 2937 2933 2930 2928 2926 2924 2923 2920 2918 2917 2916 2916
3004 3003 3001 2999 2998 2996 2994 2993 2991 2989 2987 2985 2983 2981 2979 2977 2975 2972 2970 2966 2962 2959 2957 2954 2952 2947 2942 2938 2935 2931 2927 2923 2919 2917 2915 2913 2912 2910 2907 2905 2904 2902
2997 2996 2994 2992 2991 2989 2987 2986 2984 2982 2980 2978 2976 2974 2972 2970 2968 2965 2962 2958 2954 2950 2947 2945 2942 2936 2931 2928 2924 2920 2916 2912 2908 2906 2903 2901 2900 2898 2896 2893 2891 2890
2991 2989 2988 2986 2984 2982 2980 2979 2977 2975 2973 2971 2969 2967 2965 2963 2960 2957 2954 2950 2946 2942 2938 2936 2932 2926 2921 2918 2914 2909 2905 2900 2896 2893 2890 2888 2886 2884 2881 2879 2878 2877
2985 2983 2981 2980 2978 2976 2974 2972 2970 2968 2966 2964 2962 2960 2958 2955 2952 2949 2945 2942 2938 2933 2929 2926 2923 2917 2912 2908 2903 2898 2893 2888 2883 2879 2875 2872 2870 2868 2866 2864 2864 2863
2979 2977 2975 2974 2972 2970 2968 2966 2964 2962 2959 2956 2954 2952 2950 2947 2944 2941 2937 2933 2929 2925 2919 2915 2913 2908 2902 2897 2893 2887 2881 2875 2869 2865 2862 2859 2857 2855 2853 2851 2851 2850
2974 2972 2970 2968 2966 2964 2962 2960 2958 2955 2953 2950 2947 2944 2942 2939 2935 2932 2928 2924 2919 2916 2910 2905 2903 2899 2892 2886 2882 2876 2869 2863 2858 2855 2852 2849 2847 2845 2843 2842 2841 2840
2968 2966 2964 2962 2960 2958 2956 2954 2951 2949 2946 2943 2940 2937 2934 2931 2927 2923 2919 2915 2910 2906 2901 2896 2892 2889 2882 2876 2871 2866 2859 2854 2850 2846 2843 2841 2839 2837 2835 2834 2833 2832
2962 2960 2958 2956 2954 2952 2950 2948 2945 2942 2940 2937 2934 2930 2927 2923 2919 2915 2910 2906 2901 2897 2893 2887 2882 2878 2873 2867 2862 2856 2851 2846 2842 2839 2836 2833 2831 2829 2827 2826 2825 2824
Wind_Speed
39 39 40 42 42 43 43 42 41 41 41 41 41 41 40 40 41 42 43 44 45 45 45 45 44 43 42 41 40 40 40 40 39 39 38 37 36 35 35 34 34 34
44 44 44 45 46 47 47 47 46 44 43 42 42 42 42 43 43 44 44 44 45 45 45 45 45 45 44 43 42 41 40 40 40 40 40 40 39 38 38 37 37 37
49 49 49 48 49 50 50 50 50 49 48 47 47 46 45 44 44 45 45 45 45 44 44 44 44 45 45 45 44 44 43 41 40 40 40 40 40 40 40 40 39 39
54 53 53 52 52 52 52 53 53 53 53 53 52 50 47 45 44 43 43 43 43 43 44 44 44 44 44 45 45 44 44 43 43 42 42 41 41 42 42 42 42 42
55 55 54 53 52 52 52 52 52 52 52 53 53 52 50 48 46 44 42 41 41 41 41 42 43 44 45 45 45 45 45 44 44 44 43 43 43 43 44 45 45 45
52 52 52 51 50 49 49 48 48 48 47 47 48 49 49 49 48 47 45 43 42 40 40 39 40 41 43 44 45 46 46 46 46 45 45 45 44 44 45 46 47 47
46 47 47 47 46 46 45 45 45 45 44 44 44 45 45 46 47 47 47 46 44 42 41 40 40 39 40 41 43 44 46 47 47 47 47 47 47 47 46 47 48 48
40 41 41 42 42 42 42 41 41 42 42 42 42 43 44 45 46 46 47 47 46 45 44 43 43 42 41 41 41 42 43 45 46 48 48 48 48 48 48 48 49 49
36 36 37 37 38 39 39 39 40 40 40 40 41 41 42 43 44 45 46 47 47 47 47 46 46 46 45 45 44 44 44 44 45 47 49 49 50 50 49 49 50 51
33 33 33 34 35 36 37 37 38 39 39 40 41 42 42 43 44 45 46 47 47 48 48 48 48 48 48 48 48 48 48 48 47 48 49 50 51 52 52 52 52 52
30 30 30 31 32 33 34 35 36 37 38 40 41 42 43 44 45 46 47 47 48 48 48 48 49 49 49 49 49 49 50 51 51 51 51 52 52 53 54 54 55 55
29 29 30 31 32 33 34 35 36 38 39 40 41 42 43 44 44 45 46 47 48 48 49 50 50 50 51 51 52 52 53 54 55 55 55 56 55 55 55 56 56 57
30 30 31 32 33 34 35 36 37 38 39 40 41 41 42 42 43 43 44 45 46 47 49 50 51 52 53 54 55 57 58 59 59 59 60 60 60 59 59 59 58 58
31 32 33 34 34 35 36 37 38 38 39 40 40 41 41 41 42 43 43 44 45 47 48 50 52 53 55 57 60 62 63 64 64 64 65 65 64 64 63 63 62 62
33 34 35 35 36 36 36 37 38 39 40 40 40 41 42 42 43 44 45 46 47 48 50 51 53 54 56 60 63 65 67 68 69 69 69 69 69 69 68 67 67 66
35 36 36 36 36 36 37 38 39 40 40 41 41 42 43 44 45 46 48 49 51 52 53 54 55 57 59 62 64 66 68 69 70 71 71 72 72 73 72 72 71 70
35 35 35 36 36 37 38 39 40 41 41 42 43 43 44 46 47 48 49 52 54 55 56 58 59 61 63 65 66 66 65 66 67 68 70 71 72 73 74 74 74 74
36 36 36 36 37 38 39 40 41 42 42 43 44 45 46 47 48 50 52 54 57 58 59 61 63 65 67 67 65 64 63 64 65 66 67 69 70 71 72 73 74 75
37 37 38 38 39 40 41 41 42 42 43 45 46 47 48 49 50 52 54 56 59 61 62 64 66 68 67 66 64 64 64 66 67 68 69 71 71 72 73 73 74 74
39 40 40 41 42 42 43 43 43 44 45 46 48 49 49 50 52 54 56 59 62 63 65 67 68 67 65 64 65 66 68 70 71 73 74 75 75 76 76 76 76 75
42 43 43 44 44 44 44 44 45 46 47 48 49 50 51 52 54 56 59 61 63 66 68 70 68 65 64 65 67 69 71 74 76 78 80 80 80 78 78 77 77 76
44 45 45 45 45 45 45 45 46 48 49 50 51 51 52 54 56 58 61 63 65 68 70 69 65 64 65 67 69 71 74 77 80 81 80 77 74 71 71 71 72 73
45 46 46 46 46 46 46 46 48 49 50 51 52 53 54 56 58 60 63 65 68 70 69 66 64 64 67 69 70 73 76 78 78 74 69 64 59 56 56 57 59 62
45 46 46 46 46 46 47 47 48 49 51 52 54 55 56 58 60 63 65 68 70 69 66 64 64 66 68 69 71 74 75 72 66 61 57 54 50 47 45 45 45 48
46 46 46 46 46 46 47 48 49 50 51 53 55 56 58 60 62 64 67 70 69 65 64 65 66 66 67 69 71 71 66 60 56 55 54 52 49 46 43 41 40 40
46 46 46 45 45 46 47 48 49 51 52 54 55 57 59 61 63 66 69 69 66 63 63 65 65 65 67 69 69 63 56 53 52 52 52 50 49 46 43 41 39 39
Wind_Direction
304 303 302 302 302 303 303 304 303 302 302 302 303 303 303 302 302 300 299 299 298 298 297 295 294 292 291 289 288 286 286 286 285 285 285 286 286 287 287 287 287 287
305 303 302 302 302 303 305 306 307 307 306 305 304 303 302 300 299 298 296 296 295 294 293 292 291 290 289 288 286 284 283 282 281 281 282 282 282 283 283 283 284 285
302 301 300 300 301 301 302 303 304 305 305 305 304 302 301 299 296 294 292 291 290 289 287 286 285 285 284 284 283 282 281 280 279 278 278 278 278 278 279 279 280 281
298 298 298 298 298 297 297 297 298 298 298 298 298 298 297 296 294 292 290 288 286 285 283 282 280 279 278 278 278 278 278 278 277 276 275 275 275 275 275 276 277 277
293 294 295 296 296 295 295 294 293 293 292 292 292 293 293 293 292 291 289 287 284 282 280 278 277 275 275 275 274 274 273 273 273 274 273 273 272 273 273 273 273 274
291 292 294 294 295 295 295 294 293 292 291 290 289 289 289 289 290 289 289 288 286 284 281 279 276 273 271 271 270 271 271 271 271 270 270 270 270 270 271 271 271 271
291 292 292 293 293 293 292 292 291 290 290 289 288 287 287 287 287 288 288 288 288 287 286 284 282 279 275 272 269 268 268 269 269 269 268 268 268 267 267 268 269 269
292 291 291 292 292 292 292 291 290 289 288 288 287 287 287 286 286 286 287 288 289 289 289 288 287 285 283 280 277 273 270 269 269 269 268 267 267 266 265 266 266 266
292 290 289 289 288 289 289 289 289 289 289 289 289 289 289 289 288 288 288 288 289 290 290 290 289 288 287 286 285 282 279 275 272 270 269 268 267 267 266 265 264 264
292 290 289 288 287 287 287 288 288 289 289 289 290 291 291 292 292 291 291 290 290 290 290 290 290 289 289 288 287 286 284 282 278 275 272 270 269 267 267 266 265 263
294 293 292 291 291 291 291 291 291 291 291 291 291 291 291 291 291 291 291 291 291 290 290 290 290 290 289 289 288 288 286 285 283 280 277 275 272 270 268 267 266 265
294 294 294 293 293 293 293 293 293 293 294 294 293 293 292 292 291 290 290 290 290 290 290 290 290 290 290 290 290 290 289 287 285 284 282 279 276 274 272 270 268 266
293 292 292 292 292 292 292 292 292 293 293 293 292 292 292 291 291 291 291 291 290 290 291 291 291 291 292 292 292 291 290 289 287 286 284 282 280 278 276 273 271 269
292 292 291 291 291 290 290 290 290 290 289 289 289 289 289 290 291 291 291 292 292 292 292 293 293 293 293 293 293 292 291 290 288 287 285 284 282 280 279 277 275 272
292 292 292 291 290 289 288 288 287 286 286 286 287 288 289 290 291 292 293 294 294 294 294 294 294 294 294 294 294 292 291 290 289 287 286 285 283 281 280 279 277 275
291 291 291 290 290 289 288 287 286 286 287 287 288 289 291 291 292 294 296 296 297 296 296 296 296 296 296 296 296 295 293 292 290 288 286 285 283 282 280 279 278 277
289 289 289 289 290 289 289 288 288 289 289 290 291 292 293 294 295 296 297 299 299 299 298 298 299 300 300 299 298 296 294 293 291 289 287 285 283 281 279 278 277 276
289 289 290 290 290 291 291 291 292 292 292 293 294 294 295 296 297 299 300 301 301 301 301 301 302 302 302 300 298 296 294 293 291 290 288 287 285 283 280 278 276 274
293 294 294 294 294 294 294 295 295 295 295 296 296 296 297 298 299 301 302 302 302 303 303 304 305 304 302 300 297 295 294 292 290 289 288 287 286 284 283 280 278 275
298 299 298 298 298 297 298 298 298 297 297 297 297 297 298 299 301 302 303 303 304 305 305 307 306 304 300 298 296 294 293 292 290 289 288 287 286 284 283 281 279 278
301 301 300 300 300 300 300 299 299 299 298 298 298 299 299 301 302 303 304 305 305 306 307 308 305 301 298 297 296 295 294 293 292 291 290 289 287 285 282 279 277 276
301 301 301 300 300 300 300 299 299 299 299 299 300 300 301 303 304 305 306 306 307 308 308 306 303 300 299 299 298 297 296 295 294 294 293 291 289 285 282 278 276 274
301 301 300 300 300 299 299 299 299 299 300 301 301 302 304 305 305 306 307 307 308 309 307 304 302 301 301 301 300 299 299 298 297 296 294 293 291 288 284 281 277 274
300 299 299 299 299 299 299 299 300 301 302 302 303 304 305 306 307 307 308 309 309 308 305 303 303 303 303 302 302 302 302 300 298 296 295 295 294 292 290 287 283 279
299 299 299 299 299 299 299 300 301 302 303 304 305 306 306 307 308 308 309 310 309 307 305 305 305 305 305 304 305 305 302 299 297 296 296 295 294 292 290 289 287 284
300 300 299 299 299 299 300 301 303 303 304 305 306 307 307 308 309 310 310 310 308 306 306 308 308 307 307 308 308 305 301 299 298 297 295 293 291 289 288 286 286 285